CW4114 Weather Reports


time (UTC)temp
C
wind
direction
speed
KPH
gust
KPH
rain 1hr
cm
rain 24hr
cm
rain mn
cm
humidity
%
barometer
mb
20260507044756 1 255 3.2 4.8 0.00 0.00 0.00 78 1011.4
20260507044256 1 252 3.2 4.8 0.00 0.00 0.00 78 1011.4
20260507044027 1 261 3.2 4.8 0.00 0.00 0.00 78 1011.4
20260507043251 1 254 3.2 4.8 0.00 0.00 0.00 77 1011.5
20260507043023 2 259 3.2 4.8 0.00 0.00 0.00 77 1011.4
20260507042249 2 274 3.2 4.8 0.00 0.00 0.00 76 1011.5
20260507041749 2 272 3.2 4.8 0.00 0.00 0.00 76 1011.5
20260507041247 2 258 1.6 3.2 0.00 0.00 0.00 76 1011.5
20260507040746 2 255 1.6 4.8 0.00 0.00 0.00 76 1011.5
20260507040248 2 276 3.2 4.8 0.00 0.00 0.00 75 1011.5
20260507035741 2 255 3.2 4.8 0.00 0.00 0.00 75 1011.4
20260507035241 2 272 1.6 4.8 0.00 0.00 0.00 74 1011.4
20260507035008 2 276 3.2 4.8 0.00 0.00 0.00 74 1011.3
20260507034243 3 272 3.2 4.8 0.00 0.00 0.00 74 1011.4
20260507033740 3 268 3.2 4.8 0.00 0.00 0.00 73 1011.4
20260507033240 3 248 1.6 3.2 0.00 0.00 0.00 73 1011.4
20260507032740 3 250 1.6 3.2 0.00 0.00 0.00 72 1011.4
20260507032238 3 254 0.0 3.2 0.00 0.00 0.00 72 1011.5
20260507031238 3 269 1.6 4.8 0.00 0.00 0.00 71 1011.6
20260507030735 3 274 1.6 6.4 0.00 0.00 0.00 70 1011.6
20260507030234 3 274 3.2 6.4 0.00 0.00 0.00 71 1011.6
20260507025734 3 310 3.2 4.8 0.00 0.00 0.00 71 1011.6
20260507025501 4 283 1.6 6.4 0.00 0.00 0.00 72 1011.6
20260507024735 4 286 1.6 6.4 0.00 0.00 0.00 72 1011.6
20260507024233 4 309 1.6 4.8 0.00 0.00 0.00 73 1011.5
20260507023732 4 283 0.0 3.2 0.00 0.00 0.00 73 1011.3
20260507023233 4 316 0.0 4.8 0.00 0.00 0.00 73 1011.3
20260507022732 4 300 1.6 4.8 0.00 0.00 0.00 74 1011.4
20260507022232 4 317 0.0 4.8 0.00 0.00 0.00 74 1011.3
20260507021731 4 295 0.0 4.8 0.00 0.00 0.00 74 1011.3
20260507021231 4 334 3.2 4.8 0.00 0.00 0.00 72 1011.3
20260507020734 4 331 0.0 4.8 0.00 0.00 0.00 72 1011.3
20260507020458 4 329 3.2 4.8 0.00 0.00 0.00 71 1011.3
20260507015732 4 322 1.6 4.8 0.00 0.00 0.00 71 1011.3
20260507015231 4 281 1.6 4.8 0.00 0.00 0.00 71 1011.2
20260507014731 4 261 3.2 4.8 0.00 0.00 0.00 71 1011.2
20260507014231 4 259 3.2 4.8 0.00 0.00 0.00 70 1011.2
20260507013732 5 247 1.6 6.4 0.00 0.00 0.00 70 1011.1
20260507013234 5 261 1.6 6.4 0.00 0.00 0.00 69 1011.1
20260507012732 5 272 3.2 8.0 0.00 0.00 0.00 69 1011.1
20260507012232 5 296 1.6 8.0 0.00 0.00 0.00 69 1011.1
20260507011731 5 307 1.6 8.0 0.00 0.00 0.00 69 1011.1
20260507011232 5 334 3.2 8.0 0.00 0.00 0.00 69 1010.9
20260507010731 5 334 1.6 8.0 0.00 0.00 0.00 70 1011.0
20260507010232 5 351 3.2 8.0 0.00 0.00 0.00 68 1011.0
20260507005726 5 316 3.2 8.0 0.00 0.00 0.00 68 1011.0
20260507005454 5 322 3.2 11.3 0.00 0.00 0.00 68 1010.9
20260507004724 5 0 4.8 11.3 0.00 0.00 0.00 70 1011.0
20260507004224 5 243 3.2 8.0 0.00 0.00 0.00 73 1010.9
20260507003724 5 338 4.8 11.3 0.00 0.00 0.00 72 1010.9
20260507003225 5 340 4.8 11.3 0.00 0.00 0.00 71 1010.8
20260507002947 5 320 3.2 11.3 0.00 0.00 0.00 71 1010.8
20260507002223 5 333 4.8 11.3 0.00 0.00 0.00 73 1010.8
20260507001723 5 2 3.2 11.3 0.00 0.00 0.00 74 1010.8
20260507001223 5 358 6.4 14.5 0.00 0.00 0.00 73 1010.8
20260507000723 5 334 6.4 17.7 0.00 0.00 0.00 72 1010.8
20260507000223 5 340 8.0 19.3 0.00 0.00 0.00 73 1010.7
20260506235726 5 305 6.4 19.3 0.00 0.00 0.00 74 1010.7
20260506235220 5 11 6.4 11.3 0.00 0.00 0.00 75 1010.7
20260506234720 5 312 4.8 11.3 0.00 0.00 0.00 75 1010.6
20260506234219 5 336 4.8 16.1 0.00 0.00 0.00 74 1010.7
20260506233718 5 31 4.8 16.1 0.00 0.00 0.00 74 1010.7
20260506232717 5 28 6.4 17.7 0.00 0.00 0.00 73 1010.7
20260506232458 5 327 8.0 17.7 0.00 0.00 0.00 73 1010.6
20260506231718 5 351 6.4 22.5 0.00 0.00 0.00 73 1010.6
20260506231217 5 324 9.7 22.5 0.00 0.00 0.00 73 1010.8
20260506230938 5 340 6.4 19.3 0.00 0.00 0.00 73 1010.7
20260506230215 5 348 8.0 20.9 0.00 0.00 0.00 73 1010.7
20260506225659 5 323 9.7 19.3 0.00 0.00 0.00 73 1010.7
20260506225427 5 0 6.4 17.7 0.00 0.00 0.00 73 1010.7
20260506224700 5 0 8.0 17.7 0.00 0.00 0.00 72 1010.8
20260506224203 5 323 8.0 20.9 0.00 0.00 0.00 71 1010.8
20260506223657 5 320 11.3 20.9 0.00 0.00 0.00 70 1010.7
20260506223157 5 343 12.9 20.9 0.00 0.00 0.00 69 1010.6
20260506222925 5 353 8.0 22.5 0.00 0.00 0.00 69 1010.5
20260506222156 5 329 12.9 22.5 0.00 0.00 0.00 70 1010.6
20260506221922 5 330 6.4 19.3 0.00 0.00 0.00 69 1010.6
20260506221155 5 340 9.7 22.5 0.00 0.00 0.00 69 1010.7
20260506220656 5 357 8.0 22.5 0.00 0.00 0.00 69 1010.6
20260506220428 5 324 12.9 22.5 0.00 0.00 0.00 71 1010.5
20260506215627 5 314 9.7 22.5 0.00 0.00 0.00 71 1010.4
20260506215127 5 338 9.7 19.3 0.00 0.00 0.00 71 1010.4
20260506214627 5 17 9.7 20.9 0.00 0.00 0.00 72 1010.4
20260506214125 5 323 8.0 19.3 0.00 0.00 0.00 73 1010.4
20260506213852 5 333 9.7 19.3 0.00 0.00 0.00 72 1010.4
20260506213356 5 5 9.7 19.3 0.00 0.00 0.00 71 1010.3
20260506211621 5 7 6.4 20.9 0.00 0.00 0.00 71 1010.3
20260506211120 5 355 6.4 22.5 0.00 0.00 0.00 71 1010.3
20260506210620 5 331 8.0 22.5 0.00 0.00 0.00 69 1010.3
20260506210125 5 353 8.0 19.3 0.00 0.00 0.00 70 1010.2
20260506205522 5 55 8.0 19.3 0.00 0.00 0.00 70 1010.2
20260506205021 5 337 9.7 17.7 0.00 0.00 0.00 70 1010.3
20260506204520 5 324 4.8 17.7 0.00 0.00 0.00 69 1010.3
20260506204019 5 350 8.0 17.7 0.00 0.00 0.00 72 1010.2
20260506203745 5 327 3.2 14.5 0.00 0.00 0.00 72 1010.1
20260506203022 5 343 8.0 19.3 0.00 0.00 0.00 71 1010.2
20260506202520 5 340 9.7 20.9 0.00 0.00 0.00 71 1010.3
20260506202020 5 2 6.4 20.9 0.00 0.00 0.00 71 1010.3
20260506201520 5 350 8.0 19.3 0.00 0.00 0.00 71 1010.3
20260506201022 5 7 8.0 19.3 0.00 0.00 0.00 71 1010.4
20260506200519 5 345 6.4 19.3 0.00 0.00 0.00 70 1010.3
20260506200019 5 290 9.7 20.9 0.00 0.00 0.00 70 1010.3
20260506195018 5 309 12.9 22.5 0.00 0.00 0.00 71 1010.2
20260506194521 5 327 6.4 17.7 0.00 0.00 0.00 70 1010.2
20260506194019 5 334 6.4 19.3 0.00 0.00 0.00 69 1010.3
20260506193517 5 314 8.0 24.1 0.00 0.00 0.00 68 1010.2
20260506193016 5 327 9.7 24.1 0.00 0.00 0.00 68 1010.2
20260506192512 5 341 8.0 20.9 0.00 0.00 0.00 68 1010.2
20260506192012 5 344 11.3 19.3 0.00 0.00 0.00 69 1010.2
20260506191512 5 0 8.0 20.9 0.00 0.00 0.00 69 1010.2
20260506191015 5 354 11.3 25.7 0.00 0.00 0.00 68 1010.2
20260506190007 5 21 8.0 25.7 0.00 0.00 0.00 68 1010.3
20260506185506 5 2 8.0 19.3 0.00 0.00 0.00 68 1010.2
20260506185005 5 7 8.0 20.9 0.00 0.00 0.00 68 1010.2
20260506184506 5 310 6.4 20.9 0.00 0.00 0.00 68 1010.3
20260506184004 5 4 8.0 20.9 0.00 0.00 0.00 68 1010.3
20260506183503 5 329 6.4 17.7 0.00 0.00 0.00 69 1010.2
20260506183006 5 350 9.7 17.7 0.00 0.00 0.00 68 1010.2
20260506182003 6 319 9.7 20.9 0.00 0.00 0.00 66 1010.2
20260506181502 6 331 8.0 20.9 0.00 0.00 0.00 68 1010.2
20260506181002 5 326 3.2 19.3 0.00 0.00 0.00 69 1010.3
20260506180456 5 288 9.7 14.5 0.00 0.00 0.00 70 1010.4
20260506175957 5 30 6.4 14.5 0.00 0.00 0.00 69 1010.3
20260506175722 5 7 3.2 11.3 0.00 0.00 0.00 69 1010.4
20260506174953 5 338 4.8 14.5 0.00 0.00 0.00 69 1010.5
20260506174454 5 27 4.8 16.1 0.00 0.00 0.00 69 1010.4
20260506173955 5 25 6.4 16.1 0.00 0.00 0.00 67 1010.4
20260506173454 5 51 3.2 14.5 0.00 0.00 0.00 65 1010.5
20260506172954 5 340 4.8 11.3 0.00 0.00 0.00 66 1010.6
20260506172453 5 4 4.8 9.7 0.00 0.00 0.00 66 1010.7
20260506171951 5 17 3.2 14.5 0.00 0.00 0.00 68 1010.7
20260506170950 5 358 4.8 9.7 0.00 0.00 0.00 69 1010.8
20260506170449 5 357 6.4 11.3 0.00 0.00 0.00 69 1010.7
20260506165948 5 35 4.8 11.3 0.00 0.00 0.00 71 1010.8
20260506165448 5 73 1.6 11.3 0.00 0.00 0.00 73 1010.7
20260506164946 5 27 4.8 14.5 0.00 0.00 0.00 71 1010.7
20260506164446 5 71 6.4 14.5 0.00 0.00 0.00 69 1010.8
20260506163948 5 354 4.8 14.5 0.00 0.00 0.00 69 1010.8
20260506163445 5 24 6.4 11.3 0.00 0.00 0.00 67 1010.7
20260506162944 5 42 6.4 11.3 0.00 0.00 0.00 64 1010.7
20260506162444 5 9 6.4 11.3 0.00 0.00 0.00 64 1010.7
20260506162217 6 336 4.8 14.5 0.00 0.00 0.00 65 1010.7
20260506161443 6 28 6.4 14.5 0.00 0.00 0.00 64 1010.6
20260506160938 6 18 6.4 14.5 0.00 0.00 0.00 66 1010.6
20260506160700 6 41 4.8 11.3 0.00 0.00 0.00 69 1010.6
20260506155937 5 358 3.2 16.1 0.00 0.00 0.00 69 1010.6
20260506155438 5 343 8.0 16.1 0.00 0.00 0.00 68 1010.6
20260506154935 5 18 6.4 11.3 0.00 0.00 0.00 68 1010.5
20260506154435 5 314 3.2 11.3 0.00 0.00 0.00 69 1010.6
20260506153935 5 30 6.4 14.5 0.00 0.00 0.00 70 1010.5
20260506153435 5 358 6.4 14.5 0.00 0.00 0.00 69 1010.5
20260506152936 5 37 6.4 11.3 0.00 0.00 0.00 67 1010.5
20260506152658 5 8 4.8 11.3 0.00 0.00 0.00 66 1010.6
20260506152204 5 351 3.2 9.7 0.00 0.00 0.00 67 1010.6
20260506151433 5 18 4.8 9.7 0.00 0.00 0.00 66 1010.6
20260506150934 5 21 4.8 14.5 0.00 0.00 0.00 66 1010.6
20260506150434 5 344 4.8 14.5 0.00 0.00 0.00 64 1010.6
20260506145937 5 24 3.2 11.3 0.00 0.00 0.00 64 1010.6
20260506145702 5 25 4.8 11.3 0.00 0.00 0.00 64 1010.5
20260506144932 5 38 4.8 17.7 0.00 0.00 0.00 62 1010.5
20260506144434 5 5 6.4 17.7 0.00 0.00 0.00 60 1010.3
20260506143932 5 347 6.4 14.5 0.00 0.00 0.00 58 1010.4
20260506143431 5 344 6.4 16.1 0.00 0.00 0.00 58 1010.4
20260506142930 6 336 8.0 16.1 0.00 0.00 0.00 57 1010.4
20260506142701 5 247 1.6 11.3 0.00 0.00 0.00 58 1010.4
20260506141923 5 357 4.8 11.3 0.00 0.00 0.00 54 1010.5
20260506141423 6 340 6.4 14.5 0.00 0.00 0.00 54 1010.3
20260506140925 6 8 8.0 14.5 0.00 0.00 0.00 53 1010.3
20260506140423 6 18 3.2 14.5 0.00 0.00 0.00 54 1010.3
20260506135922 6 9 3.2 16.1 0.00 0.00 0.00 53 1010.3
20260506135425 6 327 4.8 16.1 0.00 0.00 0.00 53 1010.3
20260506134422 5 357 4.8 17.7 0.00 0.00 0.00 59 1010.2
20260506133922 5 8 3.2 14.5 0.00 0.00 0.00 58 1010.2
20260506133420 5 275 3.2 17.7 0.00 0.00 0.00 59 1010.2
20260506132920 5 293 8.0 17.7 0.00 0.00 0.00 59 1010.2
20260506132420 5 299 8.0 17.7 0.00 0.00 0.00 59 1010.2
20260506131920 5 317 6.4 14.5 0.00 0.00 0.00 58 1010.2
20260506131652 5 300 6.4 14.5 0.00 0.00 0.00 61 1010.1
20260506130923 5 329 3.2 14.5 0.00 0.00 0.00 62 1010.1
20260506130420 5 274 14.5 17.7 0.00 0.00 0.00 61 1010.2
20260506125920 5 292 11.3 17.7 0.00 0.00 0.00 63 1010.1
20260506125419 5 340 4.8 17.7 0.00 0.00 0.00 63 1010.1
20260506124915 4 358 11.3 17.7 0.00 0.00 0.00 65 1010.0
20260506124644 4 319 8.0 16.1 0.00 0.00 0.00 67 1010.0
20260506124143 4 286 8.0 14.5 0.00 0.00 0.00 67 1010.0
20260506123414 3 247 9.7 17.7 0.00 0.00 0.00 69 1010.0
20260506122915 3 299 6.4 17.7 0.00 0.00 0.00 69 1010.0
20260506122638 3 259 4.8 16.1 0.00 0.00 0.00 70 1010.1
20260506121912 3 262 11.3 16.1 0.00 0.00 0.00 71 1010.0
20260506121412 3 257 9.7 16.1 0.00 0.00 0.00 74 1010.0
20260506121139 2 278 4.8 11.3 0.00 0.00 0.00 76 1009.9
20260506120412 2 274 8.0 11.3 0.00 0.00 0.00 77 1010.0
20260506115912 2 295 6.4 11.3 0.00 0.00 0.00 78 1009.9
20260506115415 2 258 9.7 11.3 0.00 0.00 0.00 79 1009.8
20260506115139 2 258 4.8 9.7 0.00 0.00 0.00 80 1009.8
20260506114411 1 262 6.4 9.7 0.00 0.00 0.00 81 1009.7
20260506114136 1 268 4.8 8.0 0.00 0.00 0.00 83 1009.7
20260506113655 1 254 4.8 9.7 0.00 0.00 0.00 83 1009.6
20260506112909 1 274 4.8 9.7 0.00 0.00 0.00 84 1009.6
20260506112411 0 278 4.8 8.0 0.00 0.00 0.00 85 1009.6
20260506111906 0 282 3.2 8.0 0.00 0.00 0.00 86 1009.4
20260506111405 0 278 4.8 8.0 0.00 0.00 0.00 87 1009.2
20260506110908 0 264 3.2 6.4 0.00 0.00 0.00 87 1009.0
20260506110404 0 268 3.2 6.4 0.00 0.00 0.00 88 1009.1
20260506110127 0 269 3.2 6.4 0.00 0.00 0.00 88 1009.0
20260506105403 0 288 3.2 6.4 0.00 0.00 0.00 88 1009.0
20260506104903 -1 274 4.8 6.4 0.00 0.00 0.00 89 1009.0
20260506104404 -1 271 3.2 6.4 0.00 0.00 0.00 89 1009.0
20260506103903 -1 258 3.2 6.4 0.00 0.00 0.00 88 1008.9
20260506103402 -1 261 3.2 6.4 0.00 0.00 0.00 88 1008.9
20260506102903 -1 258 3.2 6.4 0.00 0.00 0.00 88 1009.0
20260506102405 -1 251 3.2 4.8 0.00 0.00 0.00 88 1008.9
20260506101903 -1 264 3.2 4.8 0.00 0.00 0.00 88 1008.8
20260506101401 -1 265 3.2 6.4 0.00 0.00 0.00 88 1008.8
20260506100902 -1 267 3.2 6.4 0.00 0.00 0.00 88 1008.9
20260506100400 -1 272 3.2 4.8 0.00 0.00 0.00 87 1008.9
20260506095900 -1 269 3.2 4.8 0.00 0.00 0.00 87 1008.9
20260506095626 -1 268 3.2 4.8 0.00 0.00 0.00 87 1009.0
20260506094858 -1 267 3.2 3.2 0.00 0.00 0.00 87 1009.0
20260506094357 -1 272 1.6 4.8 0.00 0.00 0.00 87 1008.9
20260506093853 -1 265 1.6 4.8 0.00 0.00 0.00 86 1008.9
20260506093354 0 265 1.6 4.8 0.00 0.00 0.00 86 1008.9
20260506092854 0 267 1.6 3.2 0.00 0.00 0.00 86 1008.9
20260506092616 0 264 1.6 4.8 0.00 0.00 0.00 86 1009.0
20260506091853 0 268 3.2 4.8 0.00 0.00 0.00 86 1008.9
20260506091352 0 272 1.6 4.8 0.00 0.00 0.00 86 1008.9
20260506090853 0 272 3.2 4.8 0.00 0.00 0.00 85 1008.8
20260506090352 0 271 1.6 3.2 0.00 0.00 0.00 85 1008.9
20260506090115 0 278 1.6 4.8 0.00 0.00 0.00 84 1008.8
20260506085620 0 261 1.6 4.8 0.00 0.00 0.00 84 1008.7
20260506084851 0 259 1.6 3.2 0.00 0.00 0.00 83 1008.7
20260506084352 0 248 0.0 3.2 0.00 0.00 0.00 83 1008.7
20260506083351 0 244 1.6 3.2 0.00 0.00 0.00 82 1008.7
20260506082849 0 243 0.0 3.2 0.00 0.00 0.00 81 1008.7
20260506082349 0 243 1.6 3.2 0.00 0.00 0.00 80 1008.7
20260506081849 0 244 1.6 3.2 0.00 0.00 0.00 80 1008.7
20260506081349 0 243 1.6 3.2 0.00 0.00 0.00 79 1008.7
20260506080849 0 243 1.6 4.8 0.00 0.00 0.00 78 1008.8
20260506080618 0 243 3.2 4.8 0.00 0.00 0.00 77 1008.8
20260506080110 1 241 3.2 4.8 0.00 0.00 0.00 76 1008.8
20260506072835 1 276 1.6 6.4 0.00 0.00 0.00 72 1008.8
20260506072333 2 300 1.6 6.4 0.00 0.00 0.00 72 1008.8
20260506071834 2 314 3.2 8.0 0.00 0.00 0.00 72 1008.8
20260506071334 2 320 3.2 8.0 0.00 0.00 0.00 73 1008.8
20260506070833 2 305 1.6 8.0 0.00 0.00 0.00 74 1008.9
20260506070333 2 286 1.6 9.7 0.00 0.00 0.00 75 1008.9
20260506062333 2 355 8.0 11.3 0.00 0.00 0.00 76 1008.6
20260506061833 2 337 4.8 11.3 0.00 0.00 0.00 76 1008.7
20260506061556 2 340 3.2 9.7 0.00 0.00 0.00 76 1008.8
20260506060833 2 305 4.8 9.7 0.00 0.00 0.00 77 1008.8
20260506060332 2 353 3.2 8.0 0.00 0.00 0.00 78 1008.8
20260506050833 2 314 0.0 6.4 0.00 0.00 0.00 78 1009.1
20260506050332 2 357 1.6 6.4 0.00 0.00 0.00 78 1009.1